Regional Weather Roundup
Issued by NWS Columbia, SC

Home | Current Version | Previous Version | Text Only | Print | Product List | Glossary On
Versions: 1 2 3 4 5 6 7 8 9 10 11 12 13 14 15 16 17 18 19 20 21 22 23 24 25 26 27 28 29 30 31 32 33 34 35 36 37 38 39 40 41 42 43 44 45 46 47 48 49 50
000
ASUS42 KCAE 230710
RWRCAE
REGIONAL WEATHER ROUNDUP
NATIONAL WEATHER SERVICE COLUMBIA SC
300 AM EDT MON OCT 23 2017

NOTE: "FAIR" INDICATES FEW OR NO CLOUDS BELOW 12,000 FEET WITH NO
SIGNIFICANT WEATHER AND/OR OBSTRUCTIONS TO VISIBILITY.

NOT ALL STATIONS ARE QUALITY CONTROLLED BY THE NATIONAL
WEATHER SERVICE. USE DATA WITH CAUTION...ESPECIALLY
DEWPOINT OBSERVATIONS.

SCZ001>056-GAZ040-063>065-077-230800-
...UPSTATE SOUTH CAROLINA...

CITY           SKY/WX    TMP DP  RH WIND       PRES   REMARKS
ANDERSON       LGT RAIN  66  65  96 E9        30.11F
LIBERTY        RAIN      64  64 100 E7        30.12F
SPARTANBURG    HVY RAIN  64  63  94 E6        30.14F
CLEMSON        LGT RAIN  65  65 100 E5        30.13F
GREENVILLE     CLOUDY    67  63  87 E8        30.15F
GREENWOOD      LGT RAIN  67  67 100 E6        30.13F FOG
GREER          LGT RAIN  65  65 100 E9        30.15F
ROCK HILL      LGT RAIN  65  65 100 VRB5      30.16F
CHESTER        LGT RAIN  64  64 100 E6        30.17F
LAURENS        DRIZZLE   64  64 100 SE7       30.14F


...CENTRAL SOUTH CAROLINA...

CITY           SKY/WX    TMP DP  RH WIND       PRES   REMARKS
COLUMBIA APT   CLOUDY    69  69 100 E6        30.13F
COLUMBIA OWENS CLOUDY    69  68  96 VRB3      30.15F
MCENTIRE ANGB  LGT RAIN  67  67 100 E5        30.15S FOG
ORANGEBURG     CLOUDY    70  68  93 E5        30.13F
SUMTER SHAW    LGT RAIN  68  64  88 E3        30.13S
NEWBERRY       DRIZZLE   66  66 100 E3        30.16F
AIKEN          CLOUDY    68  68 100 E7        30.15F
BARNWELL         N/A     72  72 100 E7        30.11F
MANNING        RAIN      70  68  94 MISG      30.15S
CAMDEN         CLOUDY    68  64  88 E8        30.16F
LANCASTER      CLOUDY    68  64  88 E6        30.17F FOG
WINNSBORO      CLOUDY    64  64 100 E5        30.15S


...EASTERN AND COASTAL SOUTH CAROLINA...

CITY           SKY/WX    TMP DP  RH WIND       PRES   REMARKS
MYRTLE BEACH   LGT RAIN  72  70  93 SE10      30.19F
N MYRTLE BCH   CLOUDY    74  69  85 SE10      30.18F
CONWAY         CLOUDY    70  70 100 E3        30.18F
MARION         DRIZZLE   64  63  94 E6        30.18F
HARTSVILLE     FAIR      66  61  82 E6        30.16F
FLORENCE       CLOUDY    66  64  93 E8        30.17F
DARLINGTON     PTCLDY    66  63  90 E5        30.17F
CHARLESTON APT MOCLDY    73  71  93 SE9       30.12F
MOUNT PLEASANT CLOUDY    72  72 100 S16G23    30.15S FOG
WALTERBORO     CLOUDY    70  70 100 SE3       30.14S
BEAUFORT       CLOUDY    73  72  96 MISG      30.11F


...EASTERN GEORGIA...

CITY           SKY/WX    TMP DP  RH WIND       PRES   REMARKS
AUGUSTA BUSH F CLOUDY    72  70  93 E5        30.09F
AUGUSTA DANIEL CLOUDY    71  69  93 E8        30.11F
THOMSON        RAIN      68  68  98 CALM      30.14F FOG
WASHINGTON     DRIZZLE   68  66  94 CALM      30.09F
CLAXTON        PTSUNNY   73  72  97 E3        30.08F
SYLVANIA       CLOUDY    72  72 100 SE6       30.11F
STATESBORO     CLOUDY    72  72 100 CALM      30.09F
SAVANNAH       MOCLDY    73  71  93 SE8       30.10F


...SOUTHERN NORTH CAROLINA...

CITY           SKY/WX    TMP DP  RH WIND       PRES   REMARKS
CHARLOTTE      CLOUDY    69  62  78 SE8       30.18F
MONROE         CLOUDY    68  62  81 VRB5      30.17F
WADESBORO      CLOUDY    67  61  79 E5        30.18F
RUTHERFORDTON  RAIN      64  64 100 CALM      30.18F
ASHEVILLE      LGT RAIN  62  61  96 SE6       30.17F

$$



USA.gov is the U.S. government's official web portal to all federal, state and local government web resources and services.